Regional Weather Roundup
Issued by NWS Tiyan, Guam

Home | Current Version | Previous Version | Text Only | Print | Product List | Glossary On
Versions: 1 2 3 4 5 6 7 8 9 10 11 12 13 14 15 16 17 18 19 20 21 22 23 24 25 26 27 28 29 30 31 32 33 34 35 36 37 38 39 40 41 42 43 44 45 46 47 48 49 50
000
ASGM40 PGUM 180412
RWRGUM
WEATHER ROUNDUP FOR THE MARIANAS
NATIONAL WEATHER SERVICE TIYAN GU
200 PM CHST THU SEP 18 2014

GUZ001>004-180500-
MARIANA ISLANDS-

CITY           SKY/WX    TMP DP  RH WIND       PRES   REMARKS
GUAM AIRPORT   MOSUNNY   91  75  59 E6        29.88F HX 102
ANDERSEN AFB   SUNNY     86  75  70 N8        29.89F HX  95
ROTA AIRPORT   MOSUNNY   86  75  70 N9        29.90F HX  95
TINIAN AP      MOSUNNY   88  81  79 N8        29.87F HX 105
SAIPAN AP      MOSUNNY   84  75  74 NW9       29.88F HX  92

$$




USA.gov is the U.S. government's official web portal to all federal, state and local government web resources and services.